DELTA 1 DEB

Satellite information

Favourite Embed

Satellite Type and Status

DEBRISIN ORBIT

Key statistics

Satellite DELTA 1 DEB at a glance.

Uptime

17989

Days in orbit

Revolutions

≈ 11.7

Per day

Orbit

MEO

Medium Earth Orbit

Inclination

102.5

Latest

Satellite identification and parameters

Extended collection of information and parameters for DELTA 1 DEB.

Object identification

Identified? True

Debris? True

Object name: DELTA 1 DEB

International designator: 1976-077BK

Object number (NORAD): 10762

Object ID (CCSDS): 10762

Country: UNITED STATES OF AMERICA (US)

Current information (Y/N): Y

RCS size: MEDIUM

Orbital parameters

Period: 123.142 minutes

Inclination: 102.5264 deg

SMA: 8199.081 km

Apoapsis: 2398.297 km

Periapsis: 1243.595 km

RAAN: 35.088 deg

Eccentricy: 0.07041657

Argument of periapsis: 321.2198 deg

Mean anomaly: 34.0235 deg

Mean motion: 11.69378247 rev/day

Mean motion (dot): 0.00005691 rev/day2

B* drag term: 0.054279008 1/REarth

Two-line elements (TLE)

Creation date: Oct. 28, 2025, 7:11 p.m.

Reference frame: TEME

Reference center: EARTH

Epoch: Oct. 28, 2025, 12:38 p.m. UTC

TLE line 0: 0 DELTA 1 DEB

TLE line 1: 1 10762U 76077BK 25301.52664583 .00005691 00000-0 54279-1 0 9992

TLE line 2: 2 10762 102.5264 35.0880 0704166 321.2198 34.0235 11.69378247567623

Live tracking on map

Real-time ground track for satellite DELTA 1 DEB.

In-orbit conjunctions

A list of the most updated potential collisions computed for object DELTA 1 DEB.

Target Orbit TCA Probability of collision Miss distance Type
SECOR 4 (EGRS 4) SSO 2024-12-19 10:00:23 0.0001821489 992.0 (m) PAYLOAD

Associated space launch

Meteorological satellite using radiometric imaging

DELTA 1 DEB was lifted into orbit during the mission ‘Delta 2310 | NOAA 5’, on board a Delta 2310 space rocket.

The launch took place on July 29, 1976, 5:07 p.m. from Space Launch Complex 2W.

For more information about the launch, click the button.

Launch to space Delta 2310 | NOAA 5
Delta 2310 | NOAA 5

Agency: N/A

Status: Launch Successful

Launch date: July 29, 1976, 5:07 p.m. UTC

Rocket: Delta 2310

Launch pad: Space Launch Complex 2W

Location: Vandenberg SFB, CA, USA

...

Latest news about this satellite

There are no fresh news available about this satellite. Check back as we update our databases every day.


Newsletter sign-up

Weekly statistics, charts and insights to help you stay on top of the space industry.